Location: Kapuskasing
(49.3803°N, 82.4001°W)
Time: 01:32:07
(UTC-04:00)

ACS3 Solar Sail - Visible Passes

Search period start: 17 March 2026 00:00
Search period end: 27 March 2026 00:00
Orbit: 881 x 977 km, 97.2° (Epoch: 16 March)

Date Brightness Start Highest point End Pass type
(mag) Time Alt. Az. Time Alt. Az. Time Alt. Az.
17 Mar 3.1 03:05:07 10° NNE 03:08:18 34° NNE 03:08:18 34° NNE visible
17 Mar 3.1 04:48:29 10° N 04:51:58 22° NW 04:51:58 22° NW visible
18 Mar 4.2 01:35:23 10° NE 01:35:57 11° NE 01:35:57 11° NE visible
18 Mar 2.8 03:16:11 10° NNE 03:19:36 38° NNE 03:19:36 38° NNE visible
18 Mar 3.2 04:59:50 10° NNW 05:03:17 19° NW 05:03:17 19° NW visible
19 Mar 4.0 01:45:52 10° NE 01:47:14 14° NE 01:47:14 14° NE visible
19 Mar 2.7 03:27:13 10° N 03:30:53 41° N 03:30:53 41° N visible
19 Mar 3.4 05:11:13 10° NNW 05:14:33 17° NW 05:14:33 17° NW visible
20 Mar 3.9 01:56:29 10° NE 01:58:28 18° NE 01:58:28 18° NE visible
20 Mar 2.5 03:38:15 10° N 03:42:07 43° N 03:42:07 43° N visible
20 Mar 3.5 05:22:40 10° NNW 05:25:29 14° NW 05:25:47 14° NW visible
21 Mar 3.7 02:07:09 10° NNE 02:09:40 21° NE 02:09:40 21° NE visible
21 Mar 2.5 03:49:16 10° N 03:53:19 42° NNW 03:53:19 42° NNW visible
21 Mar 3.6 05:34:21 10° NNW 05:36:13 12° NW 05:36:59 11° WNW visible
22 Mar 3.4 02:17:51 10° NNE 02:20:49 26° NE 02:20:49 26° NE visible
22 Mar 2.5 04:00:15 10° N 04:04:29 39° NW 04:04:29 39° NW visible
23 Mar 3.2 02:28:34 10° NNE 02:31:56 31° NE 02:31:56 31° NE visible
23 Mar 2.6 04:11:14 10° N 04:15:35 36° NW 04:15:35 36° NW visible
24 Mar 2.9 02:39:16 10° NNE 02:43:00 36° NE 02:43:00 36° NE visible
24 Mar 2.7 04:22:11 10° N 04:26:39 31° NW 04:26:39 31° NW visible
25 Mar 2.7 02:50:00 10° NNE 02:54:02 43° NE 02:54:02 43° NE visible
25 Mar 2.9 04:33:08 10° N 04:37:40 27° WNW 04:37:40 27° WNW visible
26 Mar 4.1 01:20:27 10° NE 01:21:23 12° ENE 01:21:23 12° ENE visible
26 Mar 2.4 03:00:42 10° NNE 03:05:01 50° NNE 03:05:01 50° NNE visible
26 Mar 3.0 04:44:06 10° N 04:48:32 23° WNW 04:48:39 23° WNW visible
